Other Surface Observations
Issued by NWS Upton, NY

Home | Current Version | Previous Version | Text Only | Print | Product List | Glossary On
Versions: 1 2 3 4 5 6 7 8 9 10 11 12 13 14 15 16 17 18 19 20 21 22 23 24 25 26 27 28 29 30 31 32 33 34 35 36 37 38 39 40 41 42 43 44 45 46 47 48 49 50
000
SXUS51 KOKX 190157
OSOOKX
New York City Metropolitan Area Weather Roundup
National Weather Service New York NY
900 PM EST SUN FEB 18 2018

CITY           SKY/WX    TMP DP  RH WIND       PRES   REMARKS
Central Park   FAIR      40  22  48 NE3       30.52R
LaGuardia Arpt FAIR      40  24  53 CALM      30.49R
Kennedy Intl   FAIR      38  25  59 N9        30.51R WCI  31
Newark Liberty FAIR      39  24  55 NE3       30.50R
Teterboro Arpt FAIR      36  26  67 CALM      30.49R
Bronx Bot Gard   N/A     36  21  55 NW2       30.52R
Bronx Lehman C   N/A     39  23  52 N2          N/A
Queens College   N/A     39  25  56 NE5         N/A
Breezy Point     N/A     39 N/A N/A MISG        N/A
Brooklyn Coll    N/A     43  25  49 N2          N/A
Staten Island    N/A     36  28  75 E1          N/A

>>>>>>>>>>>>>>>>>>>>>>>>>>>>>>>>> KEY <<<<<<<<<<<<<<<<<<<<<<<<<<<<<<<
> SKY/WX - Sky Condition/Present    : R : WCI - Wind Chill Index    <
>          Weather                  : E : VSB - Visibility in Miles <
> TMP    - Temperature in Deg F     : M : HX  - Heat Index          <
> DP     - Dew Point Temperature    : A : TC  - Temperature in      <
> RH     - Relative Humidity        : R :       Celsius             <
> WIND   - Direction/Speed (mph)    : K : VRB - Variable Wind Dir   <
> PRES   - Pressure (in Hg)         : S :                           <
>>>>>>>>>>>>>>>>>>>>>>>>>>>>>>>>> KEY <<<<<<<<<<<<<<<<<<<<<<<<<<<<<<<



USA.gov is the U.S. government's official web portal to all federal, state and local government web resources and services.